RH
10 10 12 23 32 34 37 33 26 23 31 45 51 34 27 24 12 10 9 7 7 8 9 8 8 8 8 8 10 19 17 16 15 8 5 5 6 7 8 11 14 19 19 10
12 17 28 30 37 37 35 31 26 22 29 40 33 24 20 18 12 9 8 9 10 9 8 8 8 8 9 13 19 16 17 16 8 5 5 8 9 9 9 12 15 19 22 15
20 35 42 39 38 37 34 30 24 29 31 26 20 23 17 14 13 12 12 11 9 9 9 9 9 10 16 19 15 15 11 6 6 6 10 11 12 12 11 11 17 22 23 19
40 48 46 40 37 34 31 26 22 24 20 18 18 17 15 14 13 12 10 9 9 9 9 9 13 17 17 15 14 7 6 6 6 9 12 14 17 18 19 19 19 19 19 18
51 47 42 36 32 27 23 21 19 17 16 18 18 16 14 12 11 10 10 10 10 10 13 17 18 16 15 12 5 5 6 6 7 7 11 14 17 19 22 20 20 20 20 19
45 38 32 26 24 20 19 17 16 17 18 17 16 14 12 11 11 11 11 12 14 16 18 17 16 15 6 5 5 5 6 7 7 10 14 16 17 19 20 20 18 16 14 13
32 27 25 22 19 18 17 17 17 16 16 14 13 13 12 12 12 13 15 19 20 17 16 17 10 5 5 6 7 7 8 10 14 15 15 16 16 15 14 11 10 9 9 10
25 24 20 19 18 16 17 17 16 15 15 14 13 14 13 15 18 19 19 18 17 19 16 7 6 6 9 10 11 12 12 13 13 12 11 10 9 8 8 7 7 8 8 13
22 21 18 17 16 16 16 16 15 15 15 16 16 16 18 20 22 20 17 18 18 11 7 6 6 8 11 12 12 11 11 10 9 8 7 7 8 14 26 40 51 62 66 68
21 19 17 16 16 16 15 16 16 16 16 17 18 19 21 21 21 20 17 10 8 8 7 7 7 8 10 10 10 9 8 9 11 16 25 39 47 47 48 48 48 50 52 60
22 21 19 18 16 16 15 15 16 19 21 21 19 18 18 19 14 8 6 7 7 7 8 8 9 9 9 12 20 34 42 46 47 48 50 48 42 44 44 43 45 49 50 53
18 17 18 18 19 20 21 21 22 21 21 20 18 14 12 7 5 5 7 8 10 10 11 12 20 31 47 52 48 39 38 39 39 34 32 32 33 33 34 35 37 38 37 35
26 26 27 26 27 26 26 23 19 18 19 18 9 7 5 5 5 8 10 15 28 36 45 50 52 45 35 30 31 31 32 32 34 32 34 36 36 38 40 41 40 40 39 38
27 24 23 23 21 21 19 16 11 7 6 6 6 8 9 12 17 26 41 48 46 38 34 31 28 28 27 26 27 29 33 32 35 36 38 40 41 44 45 46 45 44 45 46
6 6 6 5 5 5 6 7 8 9 11 16 29 42 46 45 42 39 34 30 29 30 29 28 28 29 27 24 23 25 30 35 36 37 40 40 41 42 42 43 45 48 53 55
22 24 25 29 24 23 25 34 34 38 46 36 37 38 35 32 30 28 28 32 34 35 38 40 39 36 34 31 26 24 27 37 43 48 49 51 54 54 56 59 59 56 56 55
15 15 14 14 14 12 12 20 21 22 24 24 25 30 34 41 43 40 41 42 42 42 40 35 33 32 31 31 28 27 28 32 36 41 43 43 40 42 48 53 52 51 50 50
17 17 18 19 20 21 22 23 26 27 29 32 33 35 44 47 43 44 46 45 38 34 32 30 28 29 30 32 34 40 38 36 34 38 42 46 46 44 44 42 43 45 49 48
26 26 27 28 29 29 31 34 37 38 39 45 50 49 46 44 42 41 38 36 34 35 36 37 36 36 39 42 40 40 43 44 46 44 42 41 41 42 38 33 32 33 47 73
39 39 39 41 40 38 39 44 48 52 49 54 50 48 46 43 39 38 42 46 52 55 54 52 49 47 45 49 52 58 62 55 55 52 47 37 27 22 21 24 28 31 38 34
54 54 54 57 54 49 55 60 62 62 57 56 56 53 49 49 53 62 67 66 66 64 60 56 51 47 47 50 49 46 44 45 41 24 12 10 10 12 12 12 12 11 11 9
65 68 68 69 70 70 73 80 83 78 78 81 81 80 77 75 75 78 78 77 72 66 61 53 48 43 43 40 31 21 13 11 9 8 7 6 6 6 6 6 6 6 6 6
82 84 93 96 91 97 96 86 83 82 84 84 83 79 79 84 87 81 75 68 60 52 46 38 30 24 18 13 11 10 8 6 6 5 5 5 5 5 5 6 6 7 7 7
100 100 95 97 89 92 91 90 85 83 82 87 93 94 90 85 81 75 64 57 48 36 31 26 22 18 14 9 8 6 5 5 5 5 5 5 5 5 5 6 7 8 8 8
75 87 99 89 97 88 82 86 84 87 88 87 86 88 84 74 65 60 50 37 33 32 29 26 21 14 10 7 5 5 6 6 6 5 5 5 5 6 6 8 8 9 9 10
75 87 92 84 92 83 77 81 87 88 87 86 84 77 66 55 48 46 46 36 26 19 13 10 9 7 6 6 6 6 5 5 5 4 5 7 8 8 9 9 10 10 11 12
Wind_Speed
42 42 43 42 39 37 34 34 27 25 23 25 24 22 21 23 22 23 24 24 22 24 26 29 31 33 36 39 42 44 44 44 42 40 39 38 35 32 30 29 26 25 26 26
40 40 39 39 37 34 31 29 26 23 24 23 22 19 21 19 20 22 23 23 24 26 28 31 34 37 39 42 43 43 43 41 39 38 35 32 30 29 28 27 25 25 28 29
40 38 37 36 34 30 28 25 22 21 23 22 20 19 20 20 20 22 24 25 26 29 32 35 37 39 42 43 43 43 40 39 36 33 30 30 28 27 27 25 24 25 28 30
40 38 36 33 30 28 26 24 22 21 21 22 20 19 19 22 23 24 26 26 29 33 36 38 40 42 42 42 41 40 38 35 32 30 29 29 28 27 27 26 26 28 30 32
36 35 33 31 28 26 24 23 22 21 21 20 20 21 18 23 24 27 28 31 33 35 38 39 41 41 41 40 39 37 34 31 30 29 30 31 30 30 30 30 31 33 34 36
33 31 30 29 26 25 23 21 20 20 21 20 21 23 22 24 26 29 31 32 35 38 39 40 40 39 37 37 34 31 30 29 29 31 33 34 34 35 35 35 36 38 39 40
29 28 27 26 25 23 22 21 20 20 20 20 23 25 27 28 30 31 32 34 36 38 39 39 37 35 33 30 29 29 30 31 32 34 36 37 38 39 40 41 42 42 43 43
27 26 25 24 24 22 22 21 21 21 22 24 27 29 30 31 32 33 33 34 37 37 37 35 33 31 30 30 30 32 33 35 36 37 39 41 43 44 45 46 47 47 47 45
25 25 25 24 22 21 21 21 22 24 26 29 30 31 32 31 31 33 35 37 38 38 36 36 34 33 33 34 36 36 37 39 41 42 45 47 49 49 50 49 48 47 46 44
24 23 24 23 23 23 23 24 24 25 29 31 32 32 33 33 33 35 36 37 36 34 35 34 34 35 37 38 40 41 42 45 46 47 47 46 45 44 44 44 44 44 44 44
19 20 20 22 23 23 23 22 23 26 30 33 35 35 35 36 36 37 38 35 31 31 34 35 37 40 42 43 44 43 42 41 41 41 42 44 45 46 46 46 46 45 45 44
10 11 13 15 16 18 20 22 26 30 32 34 35 36 34 37 39 39 33 32 35 39 41 41 42 42 40 39 41 43 45 46 46 48 50 52 52 51 51 50 49 48 49 49
13 14 17 19 21 23 24 27 30 32 33 33 36 33 37 38 38 37 38 39 40 41 39 38 38 38 41 45 47 49 51 53 54 56 57 57 57 55 55 55 55 56 55 55
14 16 18 20 22 24 25 28 31 33 32 32 31 33 38 42 42 40 38 39 40 41 43 45 46 48 50 51 53 55 56 58 58 59 59 60 61 61 61 61 62 62 61 61
14 16 19 21 23 24 24 24 29 32 32 37 33 34 36 40 40 42 46 49 48 47 48 50 52 54 56 57 58 57 57 58 59 60 61 62 63 64 64 66 66 66 66 65
13 14 17 19 25 28 26 25 30 30 29 37 38 36 40 43 45 49 50 49 51 53 52 53 55 57 58 59 60 61 62 61 62 62 63 65 65 66 67 68 68 69 69 69
18 21 23 23 29 33 33 31 35 38 39 42 45 45 45 45 47 51 53 54 54 55 58 60 60 60 61 63 65 66 67 67 66 66 67 69 70 71 72 73 73 72 71 70
27 29 32 34 36 39 40 41 41 43 45 46 48 50 52 54 57 56 56 57 59 61 61 62 63 66 68 69 69 68 69 71 73 74 74 73 74 74 74 76 75 74 75 74
33 36 39 42 42 45 46 47 47 49 52 53 52 55 56 58 58 58 59 60 60 61 63 65 68 70 69 70 72 72 73 73 73 73 75 74 74 73 73 73 74 74 77 79
39 41 44 46 49 52 54 54 55 56 57 55 58 58 59 60 60 59 60 63 66 70 72 73 74 74 73 73 72 70 69 71 72 74 74 75 75 76 76 77 78 80 83 84
44 47 49 50 54 57 56 56 56 57 59 59 60 60 59 61 62 66 70 73 73 75 77 77 78 78 78 77 77 77 76 76 77 77 76 76 76 78 79 80 81 82 83 84
50 52 53 54 56 58 58 59 58 60 61 62 64 65 68 69 69 70 72 74 76 78 81 82 83 82 81 79 80 81 80 78 77 76 75 76 78 78 79 80 80 80 81 81
55 56 56 56 57 57 58 60 62 63 65 66 66 68 71 71 72 75 78 80 82 83 81 79 78 79 80 81 81 81 79 78 78 77 77 77 77 77 77 78 77 78 77 77
56 54 55 54 57 58 59 62 63 65 66 68 69 71 74 77 79 81 82 83 83 83 84 84 84 81 79 78 78 79 78 78 79 80 79 79 78 76 75 73 71 70 69 70
51 50 51 56 57 60 61 64 66 68 69 71 74 77 80 81 81 82 83 82 82 83 83 83 82 79 78 77 77 78 79 81 82 81 80 79 77 73 70 67 65 64 61 61
48 50 55 56 59 62 64 67 69 72 74 76 78 80 80 81 83 84 85 83 80 78 76 76 77 77 77 78 77 79 81 81 80 80 77 73 70 67 64 63 60 57 57 56
Wind_Direction
194 194 195 197 199 203 205 214 220 230 235 241 248 254 251 255 261 262 265 269 275 276 280 283 286 287 290 292 296 301 303 305 305 305 306 306 308 307 305 306 299 290 286 288
190 189 189 195 195 199 207 215 223 230 236 245 248 247 256 255 257 262 268 275 279 281 281 282 283 287 290 295 300 302 303 302 303 303 303 305 307 307 305 304 299 292 289 289
185 183 186 190 194 196 204 215 221 226 237 243 243 245 254 261 260 263 268 274 276 278 279 283 287 290 295 298 300 301 300 299 300 299 301 305 307 307 305 304 303 299 294 292
177 178 183 184 188 194 202 212 220 228 237 239 242 245 251 259 264 269 272 275 276 279 283 286 290 294 296 299 300 297 297 298 297 299 303 305 305 305 303 303 301 299 297 296
174 175 177 180 187 194 203 209 218 227 233 239 248 253 247 257 262 267 272 275 279 283 287 291 293 295 298 298 297 298 299 298 299 302 300 300 300 298 297 299 299 299 298 298
172 173 175 180 189 196 203 211 218 226 234 240 247 256 254 257 263 267 272 279 284 286 290 291 293 296 296 297 298 298 298 297 297 298 297 298 299 298 298 299 300 300 300 300
170 174 178 184 189 196 204 213 221 229 238 243 248 256 263 266 268 274 280 286 287 288 290 291 293 295 296 297 298 298 296 296 297 297 297 298 298 299 300 301 301 301 301 301
172 177 180 186 192 198 206 216 225 234 240 246 254 260 266 274 281 286 290 289 288 289 290 291 292 291 292 291 291 292 294 296 297 299 298 298 298 299 300 300 301 301 300 300
177 180 185 189 196 205 215 223 233 240 246 252 259 265 272 282 287 286 286 287 286 287 290 293 292 292 292 293 294 295 296 297 298 299 299 299 300 300 301 301 301 301 301 300
183 185 190 197 203 212 221 230 240 250 258 262 268 276 282 282 284 284 284 284 287 296 294 290 291 290 291 293 293 295 297 297 297 297 297 297 298 298 299 300 302 302 301 301
196 199 203 209 216 226 235 247 256 263 268 274 276 277 283 286 286 286 285 290 298 291 288 288 288 289 291 292 293 295 294 295 295 294 294 296 297 296 296 297 298 298 299 299
207 211 221 233 240 247 256 261 264 266 270 273 279 283 290 287 286 286 293 295 293 289 290 290 290 292 295 298 299 300 300 298 297 297 295 294 294 293 293 292 291 291 291 291
225 228 236 243 248 252 256 260 264 268 271 278 281 286 285 284 285 290 293 291 287 287 290 293 295 296 298 298 300 300 299 298 297 296 294 294 294 293 292 290 289 288 288 288
249 251 253 255 257 261 266 269 273 276 281 280 282 285 284 286 288 292 292 290 291 294 295 296 298 298 298 297 296 295 295 294 293 292 291 291 291 290 289 289 288 288 288 287
278 280 280 279 277 274 273 277 278 282 283 282 286 283 286 290 293 293 291 291 294 296 296 296 295 294 294 294 295 296 294 291 291 291 290 289 289 289 289 289 288 288 287 287
278 277 280 282 289 289 288 286 285 286 287 290 288 288 286 290 291 288 287 288 290 292 293 292 292 293 294 295 295 295 294 292 291 290 290 291 291 291 290 289 288 288 288 287
267 270 272 272 274 275 277 280 283 285 285 283 285 286 287 286 283 283 285 287 290 292 292 292 293 293 292 292 292 292 291 292 292 292 292 292 292 292 293 292 291 291 290 289
275 277 278 279 279 279 279 281 280 281 282 283 283 284 284 284 284 286 287 289 290 291 291 291 292 292 292 291 292 292 292 293 293 294 294 293 293 293 291 292 292 292 291 291
279 279 280 281 281 283 286 286 287 286 285 286 288 285 286 286 286 287 289 289 289 290 290 291 291 290 290 290 291 293 294 294 293 293 293 293 294 293 292 291 289 286 282 280
278 279 281 283 284 286 287 290 291 290 290 293 291 293 293 293 292 292 291 291 292 292 291 290 291 293 294 293 293 293 294 295 296 297 296 295 293 290 288 285 282 280 279 278
280 281 282 284 283 284 289 290 290 291 290 291 291 291 291 291 291 292 293 293 293 292 293 294 295 295 295 296 298 299 298 298 296 295 293 291 289 287 286 284 283 282 281 281
281 281 283 283 285 287 288 289 289 288 289 290 290 290 289 290 291 291 292 293 294 293 293 293 294 296 298 298 297 297 297 295 294 292 291 290 288 287 285 284 284 283 283 282
283 284 286 287 287 289 289 290 290 290 289 290 290 290 290 291 290 290 291 292 292 294 296 296 296 295 296 297 297 298 296 294 293 292 291 290 288 288 287 286 286 285 285 284
286 288 289 289 288 289 289 288 289 290 290 291 290 290 289 289 289 289 291 294 296 297 296 296 297 298 298 297 297 296 295 294 293 293 292 291 290 290 289 288 287 286 284 283
290 291 290 289 291 289 290 290 290 290 289 290 290 289 290 291 293 293 294 294 295 296 297 297 299 299 297 296 296 296 295 294 293 294 294 293 293 292 290 289 289 288 288 287
288 289 286 287 287 287 287 287 287 287 288 288 289 290 291 291 292 293 295 295 296 296 297 298 298 298 298 298 298 297 296 296 296 296 295 294 294 294 294 294 293 292 291 289